| time (UTC) | temp F | wind direction | speed knots | gust knots | rain 1hr in | rain 24hr in | rain mn in | humidity % | barometer mb |
| 20260508160004 | 55 | 251 | 2.6 | 5.2 | 0.00 | 0.00 | 0.00 | 19 | 1014.5 |
| 20260508155003 | 54 | 248 | 4.3 | 7.0 | 0.00 | 0.00 | 0.00 | 18 | 1014.6 |
| 20260508154003 | 54 | 243 | 5.2 | 7.8 | 0.00 | 0.00 | 0.00 | 17 | 1014.5 |
| 20260508153003 | 54 | 253 | 4.3 | 7.0 | 0.00 | 0.00 | 0.00 | 19 | 1014.6 |
| 20260508152003 | 54 | 257 | 3.5 | 7.0 | 0.00 | 0.00 | 0.00 | 21 | 1014.5 |
| 20260508151003 | 54 | 264 | 1.7 | 5.2 | 0.00 | 0.00 | 0.00 | 27 | 1014.5 |
| 20260508150004 | 54 | 269 | 0.0 | 4.3 | 0.00 | 0.00 | 0.00 | 26 | 1014.4 |
| 20260508145003 | 54 | 271 | 1.7 | 3.5 | 0.00 | 0.00 | 0.00 | 25 | 1014.4 |
| 20260508144003 | 54 | 264 | 0.9 | 4.3 | 0.00 | 0.00 | 0.00 | 25 | 1014.4 |
| 20260508143003 | 54 | 299 | 1.7 | 5.2 | 0.00 | 0.00 | 0.00 | 28 | 1014.4 |
| 20260508142214 | 54 | 309 | 0.9 | 3.5 | 0.00 | 0.00 | 0.00 | 23 | 1014.2 |
| 20260508141003 | 54 | 0 | 0.0 | 0.0 | 0.00 | 0.00 | 0.00 | 28 | 1014.2 |
| 20260508140003 | 54 | 308 | 0.0 | 3.5 | 0.00 | 0.00 | 0.00 | 25 | 1014.2 |
| 20260508135003 | 54 | 309 | 4.3 | 8.7 | 0.00 | 0.00 | 0.00 | 21 | 1014.3 |
| 20260508134003 | 54 | 309 | 4.3 | 7.8 | 0.00 | 0.00 | 0.00 | 19 | 1014.1 |
| 20260508133003 | 54 | 307 | 5.2 | 7.8 | 0.00 | 0.00 | 0.00 | 19 | 1014.0 |
| 20260508132003 | 54 | 311 | 2.6 | 7.8 | 0.00 | 0.00 | 0.00 | 21 | 1013.8 |
| 20260508131003 | 53 | 318 | 1.7 | 7.0 | 0.00 | 0.00 | 0.00 | 23 | 1013.7 |
| 20260508130003 | 51 | 337 | 0.0 | 2.6 | 0.00 | 0.00 | 0.00 | 34 | 1013.8 |
| 20260508125213 | 51 | 0 | 0.0 | 0.0 | 0.00 | 0.00 | 0.00 | 39 | 1014.0 |
| 20260508124213 | 51 | 338 | 1.7 | 3.5 | 0.00 | 0.00 | 0.00 | 36 | 1014.0 |
| 20260508123003 | 51 | 324 | 2.6 | 3.5 | 0.00 | 0.00 | 0.00 | 36 | 1014.0 |
| 20260508122003 | 50 | 321 | 2.6 | 4.3 | 0.00 | 0.00 | 0.00 | 37 | 1014.0 |
| 20260508121003 | 49 | 339 | 3.5 | 3.5 | 0.00 | 0.00 | 0.00 | 41 | 1014.1 |
| 20260508120004 | 49 | 339 | 2.6 | 3.5 | 0.00 | 0.00 | 0.00 | 40 | 1014.2 |
| 20260508115003 | 49 | 336 | 2.6 | 4.3 | 0.00 | 0.00 | 0.00 | 40 | 1014.3 |
| 20260508114003 | 49 | 334 | 3.5 | 4.3 | 0.00 | 0.00 | 0.00 | 41 | 1014.2 |
| 20260508113003 | 50 | 330 | 0.9 | 4.3 | 0.00 | 0.00 | 0.00 | 38 | 1014.1 |
| 20260508112213 | 51 | 330 | 0.9 | 3.5 | 0.00 | 0.00 | 0.00 | 36 | 1014.2 |
| 20260508111003 | 50 | 330 | 2.6 | 3.5 | 0.00 | 0.00 | 0.00 | 39 | 1014.2 |
| 20260508110003 | 49 | 330 | 2.6 | 4.3 | 0.00 | 0.00 | 0.00 | 40 | 1014.2 |
| 20260508105003 | 50 | 329 | 1.7 | 3.5 | 0.00 | 0.00 | 0.00 | 40 | 1014.2 |
| 20260508104003 | 52 | 0 | 0.0 | 0.0 | 0.00 | 0.00 | 0.00 | 36 | 1014.1 |
| 20260508103004 | 52 | 329 | 1.7 | 3.5 | 0.00 | 0.00 | 0.00 | 36 | 1014.1 |
| 20260508102003 | 52 | 325 | 1.7 | 3.5 | 0.00 | 0.00 | 0.00 | 36 | 1014.1 |
| 20260508101003 | 52 | 311 | 1.7 | 4.3 | 0.00 | 0.00 | 0.00 | 37 | 1014.1 |
| 20260508100004 | 53 | 300 | 3.5 | 4.3 | 0.00 | 0.00 | 0.00 | 35 | 1014.1 |
| 20260508095003 | 53 | 293 | 2.6 | 5.2 | 0.00 | 0.00 | 0.00 | 36 | 1014.2 |
| 20260508094003 | 54 | 288 | 4.3 | 5.2 | 0.00 | 0.00 | 0.00 | 33 | 1014.2 |
| 20260508093003 | 55 | 286 | 3.5 | 5.2 | 0.00 | 0.00 | 0.00 | 32 | 1014.3 |
| 20260508092003 | 54 | 286 | 3.5 | 5.2 | 0.00 | 0.00 | 0.00 | 33 | 1014.3 |
| 20260508091003 | 54 | 290 | 3.5 | 5.2 | 0.00 | 0.00 | 0.00 | 35 | 1014.4 |
| 20260508090003 | 54 | 291 | 3.5 | 6.1 | 0.00 | 0.00 | 0.00 | 35 | 1014.4 |
| 20260508085003 | 52 | 316 | 2.6 | 5.2 | 0.00 | 0.00 | 0.00 | 39 | 1014.4 |
| 20260508084214 | 52 | 319 | 2.6 | 5.2 | 0.00 | 0.00 | 0.00 | 39 | 1014.4 |
| 20260508083003 | 54 | 299 | 3.5 | 5.2 | 0.00 | 0.00 | 0.00 | 36 | 1014.6 |
| 20260508082214 | 54 | 294 | 3.5 | 5.2 | 0.00 | 0.00 | 0.00 | 35 | 1014.5 |
| 20260508081004 | 55 | 287 | 4.3 | 6.1 | 0.00 | 0.00 | 0.00 | 35 | 1014.6 |
| 20260508080004 | 55 | 286 | 4.3 | 6.1 | 0.00 | 0.00 | 0.00 | 35 | 1014.7 |
| 20260508075003 | 54 | 289 | 3.5 | 5.2 | 0.00 | 0.00 | 0.00 | 36 | 1014.7 |
| 20260508074003 | 53 | 301 | 2.6 | 4.3 | 0.00 | 0.00 | 0.00 | 39 | 1014.8 |
| 20260508073213 | 53 | 299 | 2.6 | 4.3 | 0.00 | 0.00 | 0.00 | 40 | 1014.8 |
| 20260508072213 | 54 | 298 | 2.6 | 4.3 | 0.00 | 0.00 | 0.00 | 39 | 1014.8 |
| 20260508071003 | 54 | 308 | 2.6 | 4.3 | 0.00 | 0.00 | 0.00 | 39 | 1014.9 |
| 20260508070003 | 54 | 298 | 1.7 | 3.5 | 0.00 | 0.00 | 0.00 | 40 | 1014.9 |
| 20260508065003 | 55 | 288 | 3.5 | 5.2 | 0.00 | 0.00 | 0.00 | 40 | 1014.9 |
| 20260508064213 | 55 | 284 | 4.3 | 6.1 | 0.00 | 0.00 | 0.00 | 42 | 1014.9 |
| 20260508063003 | 55 | 286 | 4.3 | 6.1 | 0.00 | 0.00 | 0.00 | 43 | 1015.1 |
| 20260508062003 | 55 | 285 | 4.3 | 6.1 | 0.00 | 0.00 | 0.00 | 44 | 1015.1 |
| 20260508061003 | 52 | 307 | 2.6 | 5.2 | 0.00 | 0.00 | 0.00 | 51 | 1015.1 |
| 20260508060003 | 52 | 323 | 2.6 | 3.5 | 0.00 | 0.00 | 0.00 | 57 | 1015.2 |
| 20260508055003 | 51 | 323 | 2.6 | 3.5 | 0.00 | 0.00 | 0.00 | 58 | 1015.2 |
| 20260508054003 | 52 | 328 | 3.5 | 4.3 | 0.00 | 0.00 | 0.00 | 58 | 1015.2 |
| 20260508053003 | 52 | 335 | 2.6 | 4.3 | 0.00 | 0.00 | 0.00 | 55 | 1015.3 |
| 20260508052003 | 53 | 0 | 0.0 | 0.0 | 0.00 | 0.00 | 0.00 | 54 | 1015.4 |
| 20260508051003 | 54 | 335 | 0.9 | 2.6 | 0.00 | 0.00 | 0.00 | 53 | 1015.3 |
| 20260508050003 | 54 | 335 | 0.0 | 2.6 | 0.00 | 0.00 | 0.00 | 53 | 1015.4 |
| 20260508045003 | 54 | 0 | 0.0 | 0.0 | 0.00 | 0.00 | 0.00 | 51 | 1015.4 |
| 20260508044214 | 55 | 0 | 0.0 | 0.0 | 0.00 | 0.00 | 0.00 | 50 | 1015.4 |
| 20260508043003 | 55 | 0 | 0.0 | 0.0 | 0.00 | 0.00 | 0.00 | 50 | 1015.4 |
| 20260508042003 | 56 | 0 | 0.0 | 0.0 | 0.00 | 0.00 | 0.00 | 49 | 1015.4 |
| 20260508041214 | 56 | 0 | 0.0 | 0.0 | 0.00 | 0.00 | 0.00 | 48 | 1015.4 |
| 20260508040004 | 57 | 0 | 0.0 | 0.0 | 0.00 | 0.00 | 0.00 | 47 | 1015.3 |
| 20260508035003 | 58 | 0 | 0.0 | 0.0 | 0.00 | 0.00 | 0.00 | 45 | 1015.1 |
| 20260508034214 | 59 | 0 | 0.0 | 0.0 | 0.00 | 0.00 | 0.00 | 45 | 1015.2 |
| 20260508033003 | 60 | 0 | 0.0 | 0.0 | 0.00 | 0.00 | 0.00 | 44 | 1015.2 |
| 20260508032003 | 60 | 0 | 0.0 | 0.0 | 0.00 | 0.00 | 0.00 | 43 | 1015.1 |
| 20260508031003 | 61 | 0 | 0.0 | 0.0 | 0.00 | 0.00 | 0.00 | 43 | 1015.0 |
| 20260508030213 | 61 | 152 | 0.9 | 4.3 | 0.00 | 0.00 | 0.00 | 43 | 1015.0 |
| 20260508025003 | 62 | 163 | 2.6 | 5.2 | 0.00 | 0.00 | 0.00 | 42 | 1014.9 |
| 20260508024003 | 62 | 162 | 2.6 | 6.1 | 0.00 | 0.00 | 0.00 | 42 | 1015.1 |
| 20260508023003 | 63 | 154 | 3.5 | 6.1 | 0.00 | 0.00 | 0.00 | 40 | 1015.0 |
| 20260508022003 | 63 | 153 | 3.5 | 6.1 | 0.00 | 0.00 | 0.00 | 40 | 1014.9 |
| 20260508021003 | 64 | 158 | 4.3 | 6.1 | 0.00 | 0.00 | 0.00 | 39 | 1014.9 |
| 20260508020003 | 64 | 150 | 3.5 | 7.0 | 0.00 | 0.00 | 0.00 | 39 | 1014.8 |
| 20260508015004 | 64 | 148 | 3.5 | 8.7 | 0.00 | 0.00 | 0.00 | 38 | 1015.0 |
| 20260508014003 | 65 | 146 | 4.3 | 7.8 | 0.00 | 0.00 | 0.00 | 38 | 1014.9 |
| 20260508013003 | 66 | 143 | 3.5 | 7.0 | 0.00 | 0.00 | 0.00 | 37 | 1014.9 |
| 20260508012003 | 66 | 153 | 2.6 | 7.0 | 0.00 | 0.00 | 0.00 | 37 | 1015.0 |
| 20260508011003 | 67 | 170 | 4.3 | 8.7 | 0.00 | 0.00 | 0.00 | 35 | 1014.9 |
| 20260508010003 | 67 | 162 | 3.5 | 8.7 | 0.00 | 0.00 | 0.00 | 35 | 1015.1 |
| 20260508005003 | 68 | 193 | 3.5 | 7.0 | 0.00 | 0.00 | 0.00 | 33 | 1015.1 |
| 20260508004213 | 68 | 178 | 2.6 | 7.8 | 0.00 | 0.00 | 0.00 | 32 | 1015.1 |
| 20260508003212 | 69 | 218 | 0.9 | 7.0 | 0.00 | 0.00 | 0.00 | 32 | 1015.2 |
| 20260508002213 | 68 | 202 | 4.3 | 8.7 | 0.00 | 0.00 | 0.00 | 32 | 1015.3 |
| 20260508001214 | 68 | 146 | 2.6 | 6.1 | 0.00 | 0.00 | 0.00 | 33 | 1015.2 |
| 20260508000004 | 68 | 151 | 4.3 | 7.8 | 0.00 | 0.00 | 0.00 | 33 | 1015.2 |
| 20260507235003 | 68 | 166 | 1.7 | 10.4 | 0.00 | 0.00 | 0.00 | 32 | 1015.3 |
| 20260507234212 | 68 | 144 | 1.7 | 6.1 | 0.00 | 0.00 | 0.00 | 32 | 1015.4 |
| 20260507233004 | 67 | 130 | 3.5 | 8.7 | 0.00 | 0.00 | 0.00 | 32 | 1015.4 |
| 20260507232003 | 67 | 255 | 1.7 | 5.2 | 0.00 | 0.00 | 0.00 | 33 | 1015.5 |
| 20260507231003 | 67 | 198 | 4.3 | 9.6 | 0.00 | 0.00 | 0.00 | 31 | 1015.5 |
| 20260507230005 | 68 | 178 | 1.7 | 6.1 | 0.00 | 0.00 | 0.00 | 32 | 1015.5 |
| 20260507225003 | 68 | 190 | 1.7 | 6.1 | 0.00 | 0.00 | 0.00 | 33 | 1015.6 |
| 20260507224003 | 67 | 189 | 1.7 | 5.2 | 0.00 | 0.00 | 0.00 | 34 | 1015.7 |
| 20260507223003 | 67 | 177 | 2.6 | 8.7 | 0.00 | 0.00 | 0.00 | 36 | 1015.8 |
| 20260507222004 | 67 | 168 | 2.6 | 11.3 | 0.00 | 0.00 | 0.00 | 35 | 1015.9 |
| 20260507221003 | 66 | 200 | 3.5 | 10.4 | 0.00 | 0.00 | 0.00 | 35 | 1016.0 |
| 20260507220004 | 66 | 219 | 3.5 | 7.8 | 0.00 | 0.00 | 0.00 | 36 | 1016.1 |
| 20260507215004 | 66 | 243 | 1.7 | 8.7 | 0.00 | 0.00 | 0.00 | 37 | 1016.2 |
| 20260507214004 | 66 | 205 | 1.7 | 7.0 | 0.00 | 0.00 | 0.00 | 36 | 1016.3 |
| 20260507213003 | 66 | 152 | 3.5 | 8.7 | 0.00 | 0.00 | 0.00 | 38 | 1016.4 |
| 20260507212003 | 66 | 207 | 5.2 | 10.4 | 0.00 | 0.00 | 0.00 | 36 | 1016.5 |
| 20260507211003 | 66 | 165 | 3.5 | 26.1 | 0.00 | 0.00 | 0.00 | 36 | 1016.5 |
| 20260507210004 | 66 | 204 | 3.5 | 10.4 | 0.00 | 0.00 | 0.00 | 35 | 1016.5 |
| 20260507205003 | 66 | 135 | 0.9 | 3.5 | 0.00 | 0.00 | 0.00 | 35 | 1016.6 |
| 20260507204003 | 65 | 193 | 3.5 | 8.7 | 0.00 | 0.00 | 0.00 | 36 | 1016.7 |
| 20260507203003 | 65 | 212 | 5.2 | 10.4 | 0.00 | 0.00 | 0.00 | 36 | 1016.7 |
| 20260507202004 | 66 | 167 | 2.6 | 13.0 | 0.00 | 0.00 | 0.00 | 35 | 1016.7 |
| 20260507201003 | 65 | 25 | 0.0 | 4.3 | 0.00 | 0.00 | 0.00 | 33 | 1016.9 |
| 20260507200003 | 65 | 7 | 0.9 | 6.1 | 0.00 | 0.00 | 0.00 | 33 | 1016.9 |
| 20260507195003 | 65 | 40 | 3.5 | 8.7 | 0.00 | 0.00 | 0.00 | 34 | 1017.0 |
| 20260507194003 | 64 | 39 | 1.7 | 7.0 | 0.00 | 0.00 | 0.00 | 35 | 1017.0 |
| 20260507193003 | 64 | 33 | 2.6 | 8.7 | 0.00 | 0.00 | 0.00 | 35 | 1017.0 |
| 20260507192003 | 64 | 43 | 3.5 | 8.7 | 0.00 | 0.00 | 0.00 | 36 | 1016.9 |
| 20260507191003 | 64 | 357 | 0.9 | 5.2 | 0.00 | 0.00 | 0.00 | 35 | 1017.0 |
| 20260507190004 | 63 | 11 | 3.5 | 7.8 | 0.00 | 0.00 | 0.00 | 35 | 1017.0 |
| 20260507185003 | 62 | 11 | 1.7 | 6.1 | 0.00 | 0.00 | 0.00 | 37 | 1016.9 |
| 20260507184003 | 62 | 330 | 0.9 | 4.3 | 0.00 | 0.00 | 0.00 | 36 | 1016.9 |
| 20260507183003 | 62 | 90 | 1.7 | 5.2 | 0.00 | 0.00 | 0.00 | 37 | 1016.9 |
| 20260507182003 | 61 | 66 | 1.7 | 5.2 | 0.00 | 0.00 | 0.00 | 36 | 1016.9 |
| 20260507181212 | 61 | 18 | 1.7 | 7.0 | 0.00 | 0.00 | 0.00 | 35 | 1016.9 |
| 20260507180004 | 61 | 1 | 1.7 | 6.1 | 0.00 | 0.00 | 0.00 | 35 | 1016.9 |
| 20260507175003 | 61 | 2 | 3.5 | 7.8 | 0.00 | 0.00 | 0.00 | 34 | 1017.0 |
| 20260507174003 | 61 | 350 | 3.5 | 7.8 | 0.00 | 0.00 | 0.00 | 34 | 1017.0 |
| 20260507173003 | 61 | 349 | 1.7 | 7.8 | 0.00 | 0.00 | 0.00 | 34 | 1016.8 |
| 20260507172214 | 60 | 318 | 1.7 | 7.8 | 0.00 | 0.00 | 0.00 | 35 | 1016.8 |
| 20260507171003 | 60 | 317 | 2.6 | 8.7 | 0.00 | 0.00 | 0.00 | 36 | 1016.6 |
| 20260507170004 | 60 | 339 | 1.7 | 8.7 | 0.00 | 0.00 | 0.00 | 36 | 1016.7 |
| 20260507165214 | 60 | 341 | 1.7 | 8.7 | 0.00 | 0.00 | 0.00 | 35 | 1016.7 |
| 20260507164003 | 59 | 328 | 1.7 | 7.0 | 0.00 | 0.00 | 0.00 | 38 | 1016.7 |
| 20260507163003 | 59 | 324 | 1.7 | 6.1 | 0.00 | 0.00 | 0.00 | 38 | 1016.6 |
| 20260507162003 | 59 | 318 | 1.7 | 7.0 | 0.00 | 0.00 | 0.00 | 38 | 1016.5 |
| 20260507161003 | 58 | 316 | 1.7 | 5.2 | 0.00 | 0.00 | 0.00 | 38 | 1016.7 |